Location: Peebles
(55.6412°N, 3.1714°W)
Time: 18:14:41
(UTC+01:00)

ISS - Pass Details

Date: 01 October 2021
Orbit: 417 x 423 km, 51.6° (Epoch: 23 October)

Event Time Altitude Azimuth Distance (km) Brightness Sun altitude
Rises 19:12:57 0° 269° (W) 2,364 3.3 -4.4°
Reaches altitude 10° 19:15:09 10° 260° (W) 1,500 0.8 -4.7°
Maximum altitude 19:18:15 35° 193° (SSW) 702 -2.5 -5.1°
Drops below altitude 10° 19:21:21 10° 126° (SE) 1,499 -1.4 -5.6°
Enters shadow 19:22:27 - 121° (ESE) 1,929 -0.9 -5.7°
